Theta_e
295 296 295 294 294 293 292 292 292 292 291 291 291 291 291 290 290 290 289 288 286 286 286 285 285 286 286 287 288 288 285 289 285 287 296 296 293 295 297 299 299 301 304
296 295 294 293 293 292 292 292 292 291 291 291 291 291 291 290 290 289 287 286 285 284 285 285 285 286 285 286 287 286 286 286 288 285 289 295 292 295 295 295 297 299 300
294 293 293 292 292 291 291 291 291 291 291 291 291 290 290 289 288 287 287 285 284 285 285 283 283 284 284 286 286 286 286 286 290 288 287 294 292 292 292 292 293 294 299
293 292 292 292 291 291 290 290 290 291 290 290 290 290 289 287 287 286 285 285 285 284 283 283 282 283 283 284 286 286 286 284 288 287 288 288 289 289 292 290 287 287 288
292 291 291 291 290 290 289 290 290 290 290 290 289 288 287 286 286 285 285 285 283 282 283 283 282 282 283 284 286 286 286 283 286 285 288 287 286 286 286 287 285 285 285
291 291 291 290 289 289 289 289 289 289 289 288 287 286 285 285 286 286 287 284 282 282 281 282 283 282 282 284 285 288 287 286 286 288 288 286 285 286 286 286 286 287 281
290 291 290 289 288 288 288 288 287 287 287 285 284 284 283 284 286 287 286 283 282 281 281 285 283 282 282 284 285 287 287 288 288 288 287 287 286 286 286 284 283 281 281
290 289 289 287 286 286 286 285 286 286 285 284 284 284 284 284 285 287 286 282 281 280 281 284 284 284 285 283 285 285 285 286 287 287 288 287 288 287 285 284 282 282 282
288 288 287 286 285 285 284 284 284 284 284 284 284 284 283 283 285 286 284 281 280 279 280 282 284 285 287 287 285 285 285 285 289 292 292 291 289 287 285 284 281 280 277
287 287 286 285 285 284 284 284 284 284 284 285 284 285 283 283 285 286 284 281 279 278 279 280 285 286 288 287 285 285 285 285 285 284 285 286 286 286 286 285 283 278 275
286 285 284 284 284 285 285 285 283 283 284 283 284 285 285 284 284 285 285 281 279 278 278 277 280 285 287 288 288 285 285 285 284 283 282 282 283 283 282 282 282 281 277
285 284 283 283 284 285 284 284 284 283 283 283 284 285 286 285 285 285 284 283 281 278 278 279 279 281 282 283 282 284 284 283 282 280 279 278 277 278 278 278 278 278 278
283 283 282 283 284 284 284 284 283 284 284 284 284 284 284 285 284 284 284 283 281 278 279 279 280 280 279 279 280 279 277 276 275 274 274 274 275 276 275 274 275 274 273
283 282 282 282 283 284 284 284 283 284 284 284 283 283 283 284 283 282 282 282 280 279 278 278 278 278 279 278 277 277 276 276 275 275 275 276 277 277 276 276 273 272 270
283 283 283 283 283 284 284 284 284 285 284 283 283 283 282 281 281 282 281 280 280 280 278 277 276 275 274 274 275 275 276 276 275 275 275 274 274 274 274 275 274 273 269
284 284 283 283 284 284 284 284 286 286 285 284 284 283 283 283 283 282 281 281 281 281 277 275 274 274 273 273 273 272 273 273 273 273 273 273 272 272 272 272 271 269 267
284 284 284 283 283 283 283 283 282 284 285 284 284 284 283 282 282 281 280 280 280 279 275 274 274 274 273 272 272 272 271 272 272 271 271 271 271 271 271 270 269 269 267
283 284 284 283 284 284 283 283 284 283 281 281 283 283 283 281 280 280 280 282 278 277 274 273 272 272 272 272 272 272 272 272 272 271 271 271 271 271 270 269 269 268 267
283 284 285 285 284 284 284 284 284 284 283 284 282 281 280 281 278 279 281 279 277 275 274 272 272 271 270 270 271 271 270 270 270 270 270 270 270 270 269 268 267 267 266
283 283 284 284 284 284 284 284 283 283 283 283 283 283 280 274 277 278 276 277 276 275 274 273 271 271 270 269 269 268 269 269 269 268 268 268 268 268 266 267 267 265 263
284 284 283 284 284 284 284 284 284 283 283 283 284 285 283 279 279 277 275 275 275 274 274 273 272 271 270 269 269 269 268 268 267 267 267 267 267 266 266 265 264 263 262
284 284 284 284 284 284 283 284 284 283 283 283 283 284 284 278 278 276 275 274 274 274 274 273 272 271 270 271 270 269 266 266 266 266 265 265 265 264 264 263 262 262 261
284 284 284 284 284 283 283 283 283 283 283 282 282 281 280 279 278 276 275 274 272 271 270 271 271 268 268 269 270 269 268 266 265 266 265 265 264 264 263 262 262 261 261
283 284 284 284 283 283 283 282 283 283 283 282 281 280 278 280 278 277 276 274 272 271 268 267 269 268 267 268 269 269 268 267 266 266 266 265 264 264 263 262 261 260 260
283 283 283 283 283 283 282 282 281 282 282 281 281 279 277 280 279 278 276 273 271 271 268 267 267 267 266 265 265 265 265 266 265 265 265 264 264 263 262 262 261 260 258
282 283 283 284 283 283 282 281 281 281 281 280 280 279 278 278 279 278 277 274 272 271 268 268 267 267 266 265 265 264 263 265 264 265 265 264 263 261 261 260 258 259 257
Wind_Speed
7 7 6 5 4 5 6 6 8 9 10 11 12 13 13 14 14 15 17 19 19 18 18 19 20 19 14 14 13 12 12 13 14 11 9 4 2 4 3 4 4 7 8
8 8 6 5 5 5 5 6 7 9 10 10 12 12 13 14 15 16 18 18 20 20 20 18 20 15 19 16 13 16 11 14 9 10 11 7 4 2 4 5 5 6 10
9 8 6 6 5 4 5 5 6 8 10 10 11 12 13 15 15 16 17 19 21 19 20 20 19 18 16 12 13 11 9 9 9 6 9 8 2 1 3 3 3 5 8
9 8 7 6 4 4 4 5 5 7 9 10 11 12 13 15 16 16 18 19 20 19 19 18 18 17 15 13 12 11 9 8 9 7 7 2 1 1 3 1 2 4 5
9 8 7 5 4 4 5 5 5 7 8 9 11 12 13 12 11 18 19 19 21 19 19 19 17 16 19 18 8 8 8 7 4 9 3 2 2 0 2 0 3 3 9
9 8 7 5 4 4 4 5 6 6 8 9 10 11 13 10 22 27 25 19 18 18 19 19 13 12 13 20 16 15 9 6 4 5 3 3 2 2 2 2 4 5 4
8 7 7 6 5 3 4 4 5 6 8 9 10 10 11 12 22 28 27 14 15 17 19 15 9 6 9 7 8 12 10 10 11 11 3 2 3 3 4 3 7 9 8
8 7 7 6 5 4 3 5 5 4 6 8 9 9 10 10 22 27 28 15 13 16 17 16 10 7 4 3 4 2 2 4 7 1 1 3 4 7 9 9 13 17 12
8 8 7 6 5 5 6 5 5 5 6 6 8 9 9 10 20 25 22 13 13 14 16 19 11 7 8 4 2 2 4 2 3 3 1 17 22 24 19 13 11 16 13
9 8 7 6 6 6 6 5 5 4 5 6 9 7 8 9 16 22 20 10 12 11 14 17 25 12 6 4 2 1 1 3 10 11 12 17 18 18 15 9 10 15 15
7 7 7 7 7 7 6 4 5 5 5 5 7 8 6 6 10 19 21 9 9 9 9 11 12 25 25 22 13 5 5 8 14 11 9 9 9 10 9 10 10 5 6
8 8 7 7 6 6 7 5 4 4 5 4 6 7 4 5 11 16 18 17 16 8 9 7 8 22 25 24 16 19 18 13 8 8 9 8 9 9 10 11 14 15 13
9 9 7 7 7 7 7 5 4 3 3 3 4 5 7 5 6 16 16 16 14 7 6 12 18 18 19 17 22 20 15 8 8 9 8 8 8 9 13 14 16 19 18
9 9 8 7 8 8 5 4 5 3 3 2 2 4 6 5 6 7 7 6 10 8 9 6 11 14 19 15 12 13 9 8 8 8 8 8 8 8 9 8 11 11 12
8 7 8 8 9 7 7 6 6 4 3 2 1 3 5 5 5 9 9 5 5 7 5 5 6 7 8 8 9 9 8 8 8 7 7 8 8 9 9 7 7 8 10
9 9 8 8 7 7 7 6 12 8 8 6 5 4 3 7 9 7 10 10 11 10 4 5 6 6 7 6 7 8 8 9 7 7 7 7 8 8 9 9 9 10 12
11 9 8 9 9 9 8 7 7 9 12 10 9 7 8 6 7 2 3 7 12 6 4 5 5 5 5 6 6 6 7 7 7 7 7 7 8 9 9 9 9 9 10
10 11 9 8 9 9 9 8 6 7 7 5 12 9 8 4 5 2 2 3 3 5 3 4 4 5 5 5 5 6 6 6 6 6 7 7 7 9 9 9 8 10 9
9 8 9 8 8 9 8 8 8 7 7 5 4 7 6 7 3 3 4 2 2 3 2 3 3 3 3 4 4 5 5 6 6 6 6 6 6 8 9 8 9 10 10
8 10 9 9 8 9 9 9 9 9 8 7 7 7 5 2 2 1 1 0 3 2 2 3 2 2 3 2 3 3 4 5 5 6 6 6 7 7 8 9 8 8 7
6 7 12 8 9 9 10 11 9 9 9 8 8 7 11 5 4 4 3 2 2 3 3 2 3 3 2 2 2 3 5 5 5 5 6 6 6 8 7 8 8 8 8
7 7 8 11 10 10 10 10 10 10 10 9 7 7 16 5 3 4 3 3 2 2 2 3 2 2 2 3 3 3 3 4 5 6 6 6 7 7 7 8 7 7 7
8 8 9 9 11 12 11 10 10 10 9 9 8 8 8 7 6 5 5 4 4 4 3 2 3 3 2 2 2 3 5 4 3 5 7 7 7 7 7 8 8 7 6
8 9 9 10 10 11 11 10 10 12 10 9 9 9 9 9 8 7 6 5 5 4 4 3 3 6 4 3 3 3 5 5 5 5 7 8 8 7 7 7 7 8 8
9 9 9 10 10 11 11 11 11 11 11 10 10 9 9 8 8 8 7 6 5 6 5 4 3 6 7 7 5 6 7 8 6 7 6 7 9 9 8 8 9 7 7
9 9 9 8 10 11 11 11 11 10 11 10 10 9 9 10 9 8 8 8 7 6 6 5 6 7 9 6 8 10 10 10 8 8 7 7 8 7 6 8 9 7 7
Wind_Direction
194 205 215 230 248 267 280 291 296 302 301 305 306 307 306 303 299 297 296 297 291 286 282 279 275 273 270 263 259 257 258 254 250 278 272 208 182 249 257 240 246 266 261
196 201 210 223 236 256 273 295 299 301 304 310 308 307 305 301 304 305 301 300 291 289 286 282 277 271 270 264 253 255 253 272 238 239 265 260 190 252 290 292 273 254 262
189 200 203 224 236 259 277 286 296 302 305 313 310 307 304 306 308 305 303 302 295 292 297 291 287 283 276 263 251 246 250 262 237 233 233 244 106 140 241 241 272 271 254
191 196 209 218 232 264 279 282 294 301 306 311 309 305 306 309 306 311 309 306 311 305 300 293 289 285 279 275 248 244 242 249 230 232 253 84 112 192 243 190 45 12 338
188 196 205 205 218 256 269 284 296 302 304 304 303 304 308 309 313 320 316 322 316 310 302 291 279 276 281 279 267 237 237 263 224 209 180 133 140 230 211 139 101 84 31
189 197 194 195 208 240 268 291 299 305 306 306 309 306 309 312 323 326 331 326 322 318 315 309 284 270 272 269 261 238 245 276 260 230 141 144 125 124 68 151 139 136 64
186 189 188 197 197 215 271 293 293 304 310 307 302 303 307 316 328 331 338 331 326 330 331 339 346 309 281 270 264 236 266 267 269 272 113 113 136 154 113 53 77 85 87
185 189 184 186 183 207 230 266 276 296 300 302 301 305 311 318 337 338 344 335 337 339 342 341 1 345 349 290 162 135 240 245 265 27 86 179 124 118 102 113 110 99 81
197 190 188 179 182 202 229 250 279 303 305 305 301 306 319 322 340 348 351 340 344 349 353 354 1 26 8 73 109 145 86 296 351 39 110 123 121 121 125 124 120 112 95
191 192 171 169 181 206 225 245 271 285 295 305 304 299 302 320 339 353 360 343 349 355 360 5 7 19 21 46 356 61 165 103 89 75 76 94 102 112 117 107 131 121 121
178 164 167 172 186 209 217 227 267 291 298 298 300 301 296 321 334 359 4 360 355 357 6 6 11 33 51 43 41 40 77 94 87 87 86 85 87 87 79 80 87 91 110
163 171 182 182 182 203 213 229 245 262 291 297 308 306 309 329 354 2 6 13 6 357 11 10 20 35 45 53 49 52 61 67 68 75 76 73 82 83 82 82 78 76 73
164 182 191 176 184 200 209 220 242 226 252 295 315 317 323 339 359 1 4 12 10 7 10 28 32 41 49 51 57 57 51 50 68 76 75 75 77 86 92 89 85 82 66
184 181 184 187 196 200 195 206 224 212 234 259 308 317 316 330 359 355 359 5 5 6 1 13 43 46 52 53 54 52 53 58 67 78 89 93 96 95 91 96 100 94 82
191 182 186 189 203 197 202 201 215 210 197 218 214 300 313 319 352 355 2 1 13 10 356 16 23 41 47 46 52 52 52 59 68 75 84 87 86 90 87 100 88 83 91
197 192 188 183 193 200 199 196 221 236 195 216 243 267 290 280 327 7 22 34 37 25 7 16 33 32 46 53 60 63 54 53 53 63 69 75 83 85 85 78 82 91 101
205 201 192 188 185 191 197 198 189 213 219 233 238 248 272 296 314 348 33 53 50 53 49 28 19 29 40 52 55 63 70 70 69 66 70 74 89 91 94 95 94 97 95
209 205 199 192 194 193 190 200 193 195 196 204 223 223 245 274 307 340 177 104 54 38 56 61 40 12 20 44 62 73 77 68 72 83 85 89 91 94 96 96 98 106 104
199 206 200 203 199 198 194 190 188 197 205 189 164 209 219 236 259 324 60 85 111 98 84 74 79 73 35 22 42 54 66 78 84 86 82 84 85 100 100 100 101 105 105
206 207 199 199 195 199 194 193 191 195 202 196 196 211 151 149 185 184 330 228 115 104 105 110 86 80 95 85 79 78 79 71 72 78 81 83 86 93 103 111 108 105 88
206 199 202 205 205 200 203 201 196 192 198 204 204 197 193 195 179 172 178 198 151 132 125 116 123 117 95 76 68 81 91 87 85 90 88 86 91 98 87 83 88 91 98
214 207 194 203 209 207 206 202 196 196 196 199 194 193 198 202 180 170 172 163 140 114 110 131 123 112 124 132 126 110 92 108 116 115 107 103 104 102 103 101 103 105 110
218 209 206 207 214 212 209 202 201 199 196 190 183 172 184 196 191 175 173 165 156 147 137 129 125 125 114 96 93 115 133 138 131 129 126 122 120 119 120 121 124 118 116
227 217 212 210 213 212 207 201 205 200 193 188 184 178 184 189 185 183 170 162 157 151 142 142 146 152 145 139 134 116 113 119 121 126 129 130 127 124 119 119 119 123 123
229 219 213 208 208 211 207 200 197 196 195 194 189 183 177 185 177 174 164 158 165 156 160 157 163 164 160 142 122 109 120 121 117 121 113 118 125 127 131 128 132 123 122
232 222 221 212 214 214 205 201 197 194 194 196 193 183 177 180 175 171 164 164 171 165 157 161 164 160 155 151 141 129 133 126 127 122 117 123 125 123 120 123 121 124 121